Location: Newark
(48.5667°N, 12.8167°E)
Time: 08:53:47
(UTC+00:00)

METEOR M2 - Pass Details

Date: 17 November 2019
Orbit: 818 x 828 km, 98.5° (Epoch: 10 December)

Event Time Altitude Azimuth Distance (km) Brightness Sun altitude
Exits shadow 17:14:39 15° 31° (NNE) 2,129 ? -17.6°
Drops below altitude 10° 17:16:08 10° 16° (NNE) 2,437 ? -17.8°
Sets 17:19:15 0° 357° (N) 3,373 ? -18.3°
